Flag for Germany Weather past 2 weeks in Jena, Thuringia, Germany

Now
52 °F

Passing clouds.


Feels Like: 50 °F
Forecast: 47 / 66 °F
Wind: 6 mph from Southwest

Location: Erfurt-Bindersleben

Current Time: Oct 2, 2014 at 3:24:01 AM

Latest Report: Oct 2, 2014 at 2:50 AM


Visibility: N/A

Pressure: 30.36 "Hg

Humidity: 100%

Dew point: 52 °F

Location of JenaLocation

Historic Weather in Jena — Graph

°F

Jena temperature yesterday

Maximum temperature yesterday: 66 °F (at 12:50 PM)
Minimum temperature yesterday: 55 °F (at 7:20 AM)
Average temperature yesterday: 61 °F

Past Weeks' High & Low Weather Summary

 TemperatureHumidityPressure
High73 °F (Sep 19, 1:50 PM)100% (Sep 17, 7:20 AM)30.39 "Hg (Sep 17, 7:20 AM)
Low39 °F (Sep 24, 6:20 AM)51% (Sep 23, 3:20 PM)29.86 "Hg (Sep 24, 3:50 PM)
Average58 °F83%30.10 "Hg
* Reported Sep 17 2:20 AM — Oct 2 2:20 AM, Jena, Weather by CustomWeather, © 2014

Note: Actual official high and low records may vary slightly from our data, if they occured in-between our weather recording intervals... More about our weather records

Advertising

Jena weather history for previous 24 hours

 ConditionsComfort  
Time TempWeatherWind HumidityBarometerVisibility
2:20 AM
Oct 2
54 °FPassing clouds.7 mph94%30.36 "HgN/A
1:50 AM54 °FPassing clouds.7 mph94%30.36 "HgN/A
1:20 AM54 °FPassing clouds.7 mph94%30.36 "HgN/A
12:50 AM55 °FPassing clouds.7 mph94%30.36 "HgN/A
12:20 AM55 °FPassing clouds.8 mph94%30.36 "HgN/A
11:50 PM
Oct 1
55 °FClear.9 mph94%30.36 "Hg10 mi
11:20 PM55 °FClear.8 mph94%30.36 "Hg10 mi
10:50 PM55 °FClear.8 mph94%30.36 "Hg10 mi
10:20 PM55 °FPassing clouds.6 mph88%30.36 "HgN/A
9:50 PM59 °FPassing clouds.3 mph82%30.36 "HgN/A
9:20 PM59 °FPassing clouds.6 mph82%30.36 "HgN/A
8:50 PM59 °FPassing clouds.6 mph82%30.33 "HgN/A
8:20 PM63 °FPassing clouds.3 mph73%30.33 "HgN/A
7:50 PM63 °FSunny.3 mph68%30.33 "Hg10 mi
7:20 PM63 °FSunny.1 mph68%30.33 "Hg10 mi
6:50 PM64 °FPassing clouds.1 mph64%30.33 "HgN/A
6:20 PM64 °FPassing clouds.1 mph68%30.33 "HgN/A
5:50 PM66 °FPassing clouds.2 mph64%30.30 "HgN/A
5:20 PM66 °FPassing clouds.3 mph68%30.30 "HgN/A
4:50 PM66 °FPassing clouds.2 mph64%30.30 "HgN/A
4:20 PM66 °FScattered clouds.2 mph64%30.30 "HgN/A
3:50 PM66 °FScattered clouds.5 mph68%30.30 "HgN/A
3:20 PM66 °FScattered clouds.6 mph68%30.30 "HgN/A
2:50 PM66 °FScattered clouds.5 mph68%30.33 "HgN/A
2:20 PM66 °FScattered clouds.5 mph68%30.33 "HgN/A
1:50 PM66 °FScattered clouds.3 mph68%30.33 "HgN/A
1:20 PM66 °FScattered clouds.3 mph73%30.33 "HgN/A
12:50 PM66 °FScattered clouds.2 mph73%30.33 "HgN/A
12:20 PM64 °FScattered clouds.No wind78%30.33 "HgN/A
11:50 AM63 °FScattered clouds.1 mph77%30.33 "Hg5 mi
11:20 AM61 °FScattered clouds.2 mph83%30.33 "Hg4 mi
10:50 AM61 °FScattered clouds.1 mph88%30.33 "Hg4 mi
10:20 AM59 °FFog.3 mph94%30.33 "Hg3 mi
9:50 AM59 °FFog.3 mph88%30.33 "Hg2 mi
9:20 AM57 °FFog.3 mph94%30.33 "Hg2 mi
8:50 AM55 °FFog.2 mph100%30.33 "Hg2 mi
8:20 AM55 °FFog.2 mph100%30.33 "Hg1 mi
7:50 AM55 °FFog.3 mph94%30.30 "Hg2 mi
7:20 AM55 °FCool.2 mph94%30.30 "Hg1 mi
6:50 AM57 °FFog.3 mph88%30.30 "Hg2 mi
6:20 AM57 °FFog.1 mph88%30.30 "Hg4 mi
5:50 AM57 °FPassing clouds.2 mph94%30.30 "Hg5 mi
5:20 AM59 °FPassing clouds.1 mph88%30.30 "Hg6 mi
4:50 AM59 °FPassing clouds.1 mph88%30.30 "HgN/A
4:20 AM59 °FPassing clouds.1 mph88%30.30 "HgN/A
3:50 AM57 °FPassing clouds.2 mph94%30.30 "HgN/A
3:20 AM59 °FPartly cloudy.5 mph88%30.30 "HgN/A
Weather by CustomWeather, © 2014

See weather overviewHow to use our weather pages